Stuttgart Echterdingen, Germany

10:01 PM CEST on April 21, 2018 (GMT +0200)
Stuttgart

Weather History for EDDS - June, 2013

Change the Weather History Date:

Saturday, June 8, 2013

  Actual Average Record
Temperature  
Mean Temperature 64 °F -  
Max Temperature 78 °F 70 °F 91 °F (2014)
Min Temperature 51 °F 51 °F 41 °F (2005)
Growing Degree Days 14 (Base 50)    
Moisture  
Dew Point 52 °F    
Average Humidity 61    
Maximum Humidity 94    
Minimum Humidity 24    
Precipitation  
Precipitation 0.00 in - - ()
Sea Level Pressure  
Sea Level Pressure 29.97 in    
Wind  
Wind Speed 3 mph ()    
Max Wind Speed 10 mph    
Max Gust Speed -    
Visibility 8.3 miles    
Events      
Averages and records for this station are not official NWS values.
T = Trace of Precipitation, MM = Missing Value Source: Averaged Metar Reports

Daily Weather History Graph

Daily Weather History Graph

Search for Another Location

Airport or City:

Astronomy

Jun. 08, 2013 Rise Set
Actual Time 5:21 AM CEST 9:23 PM CEST
Civil Twilight 4:39 AM CEST 10:05 PM CEST
Nautical Twilight 3:41 AM CEST 11:03 PM CEST
Astronomical Twilight 1:59 AM CEST 12:48 AM CEST
Moon 5:21 AM CEST (6/8) 9:07 PM CEST (6/8)
Length of Visible Light 17h 25m
Length of Day
16h 02m
Waning Crescent, 0% of the Moon is Illuminated
Jun 8
Waning Crescent
Jun 8
New
Jun 16
First Quarter
Jun 23
Full
Jun 30
Last Quarter

Hourly Weather History & Observations

Time (CEST) Temp. Dew Point Humidity Pressure Visibility Wind Dir Wind Speed Gust Speed Precip Events Conditions
12:00 AM 60 °F 51 °F 63% 30.08 in 31 mi Calm Calm - -   Scattered Clouds
12:20 AM 59.0 °F 51.8 °F 77% 30.06 in - West 3.5 mph - N/A   Clear
12:50 AM 59.0 °F 51.8 °F 77% 30.06 in - WNW 3.5 mph - N/A   Clear
1:00 AM 58 °F 51 °F 70% 30.07 in 25 mi WNW 2.2 mph - -   Mostly Cloudy
1:20 AM 59.0 °F 51.8 °F 77% 30.06 in - West 3.5 mph - N/A   Clear
1:50 AM 57.2 °F 51.8 °F 82% 30.06 in - NW 1.2 mph - N/A   Clear
2:00 AM 58 °F 51 °F 72% 30.07 in 25 mi NW 2.2 mph - -   Mostly Cloudy
2:20 AM 55.4 °F 51.8 °F 88% 30.06 in - NE 1.2 mph - N/A   Clear
2:50 AM 57.2 °F 51.8 °F 82% 30.06 in - WNW 3.5 mph - N/A   Clear
3:00 AM 56 °F 51 °F 78% 30.06 in 25 mi West 2.2 mph - -   Mostly Cloudy
3:20 AM 55.4 °F 50.0 °F 82% 30.04 in - NW 2.3 mph - N/A   Clear
3:50 AM 53.6 °F 50.0 °F 88% 30.04 in - Variable 2.3 mph - N/A   Clear
4:00 AM 53 °F 50 °F 84% 30.06 in 25 mi WNW 2.2 mph - -   Partly Cloudy
4:20 AM 51.8 °F 50.0 °F 94% 30.04 in - NE 1.2 mph - N/A   Clear
4:50 AM 51.8 °F 50.0 °F 94% 30.04 in - West 1.2 mph - N/A   Clear
5:20 AM 51.8 °F 48.2 °F 88% 30.04 in - West 2.3 mph - N/A   Clear
5:50 AM 51.8 °F 48.2 °F 88% 30.04 in - Calm Calm - N/A   Clear
6:00 AM 52 °F 49 °F 85% 30.05 in 25 mi NNW 2.2 mph - -   Scattered Clouds
6:20 AM 53.6 °F 50.0 °F 88% 30.04 in - Variable 1.2 mph - N/A   Clear
6:50 AM 55.4 °F 51.8 °F 88% 30.04 in - Calm Calm - N/A   Clear
7:00 AM 56 °F 52 °F 80% 30.04 in 12 mi ENE 2.2 mph - -   Scattered Clouds
7:20 AM 57.2 °F 53.6 °F 88% 30.04 in - Variable 1.2 mph - N/A   Clear
7:50 AM 59.0 °F 53.6 °F 82% 30.04 in - Variable 1.2 mph - N/A   Clear
8:00 AM 59 °F 53 °F 74% 30.04 in 12 mi ENE 2.2 mph - -   Scattered Clouds
8:20 AM 60.8 °F 53.6 °F 77% 30.04 in 6.2 mi ESE 2.3 mph - N/A   Scattered Clouds
8:50 AM 60.8 °F 53.6 °F 77% 30.04 in 6.2 mi Variable 1.2 mph - N/A   Scattered Clouds
9:00 AM 62 °F 54 °F 66% 30.03 in 12 mi ENE 2.2 mph - -   Partly Cloudy
9:20 AM 66.2 °F 55.4 °F 68% 30.04 in 6.2 mi Variable 3.5 mph - N/A   Scattered Clouds
9:50 AM 66.2 °F 53.6 °F 64% 30.04 in 6.2 mi ENE 3.5 mph - N/A   Partly Cloudy
10:00 AM 67 °F 54 °F 53% 30.01 in 12 mi ENE 2.2 mph - -   Scattered Clouds
10:20 AM 68.0 °F 55.4 °F 64% 30.04 in 6.2 mi ENE 3.5 mph - N/A   Partly Cloudy
10:50 AM 69.8 °F 55.4 °F 60% 30.04 in 6.2 mi ENE 4.6 mph - N/A   Partly Cloudy
11:20 AM 71.6 °F 53.6 °F 53% 30.01 in 6.2 mi East 6.9 mph - N/A   Partly Cloudy
11:50 AM 71.6 °F 53.6 °F 53% 30.01 in 6.2 mi NE 5.8 mph - N/A   Partly Cloudy
12:00 PM 72 °F 54 °F 43% 29.96 in 12 mi NNE 6.7 mph - -   Scattered Clouds
12:20 PM 71.6 °F 50.0 °F 46% 30.01 in 6.2 mi NE 8.1 mph - N/A   Partly Cloudy
12:50 PM 73.4 °F 51.8 °F 47% 29.98 in - East 8.1 mph - N/A   Clear
1:00 PM 73 °F 53 °F 39% 29.94 in 19 mi ENE 6.7 mph - -   Scattered Clouds
1:20 PM 75.2 °F 51.8 °F 44% 29.98 in - East 4.6 mph - N/A   Clear
1:50 PM 75.2 °F 53.6 °F 47% 29.98 in - East 4.6 mph - N/A   Clear
2:00 PM 75 °F 51 °F 33% 29.91 in 28 mi East 6.7 mph - -   Partly Cloudy
2:20 PM 77.0 °F 53.6 °F 44% 29.95 in - East 4.6 mph - N/A   Clear
2:50 PM 77.0 °F 51.8 °F 41% 29.95 in - Variable 3.5 mph - N/A   Clear
3:00 PM 77 °F 53 °F 32% 29.89 in 28 mi ENE 4.5 mph - -   Scattered Clouds
3:20 PM 77.0 °F 50.0 °F 39% 29.95 in - ENE 5.8 mph - N/A   Clear
3:50 PM 77.0 °F 53.6 °F 44% 29.92 in - East 6.9 mph - N/A   Clear
4:00 PM 77 °F 51 °F 30% 29.87 in 28 mi East 6.7 mph - -   Scattered Clouds
4:20 PM 77.0 °F 51.8 °F 41% 29.92 in - East 5.8 mph - N/A   Clear
4:50 PM 77.0 °F 51.8 °F 41% 29.92 in - ENE 4.6 mph - N/A   Clear
5:20 PM 77.0 °F 46.4 °F 34% 29.89 in - Variable 3.5 mph - N/A   Clear
5:50 PM 78.8 °F 48.2 °F 34% 29.89 in 6.2 mi Variable 2.3 mph - N/A   Scattered Clouds
6:00 PM 78 °F 48 °F 24% 29.83 in 34 mi NE 2.2 mph - -   Scattered Clouds
6:20 PM 78.8 °F 46.4 °F 32% 29.89 in 6.2 mi Variable 2.3 mph - N/A   Scattered Clouds
6:50 PM 77.0 °F 50.0 °F 39% 29.86 in 6.2 mi North 6.9 mph - N/A   Scattered Clouds
7:00 PM 77 °F 50 °F 28% 29.82 in 37 mi North 6.7 mph - -   Scattered Clouds
7:20 PM 77.0 °F 50.0 °F 39% 29.86 in 6.2 mi NNE 5.8 mph - N/A   Scattered Clouds
7:50 PM 75.2 °F 51.8 °F 44% 29.86 in 6.2 mi North 5.8 mph - N/A   Scattered Clouds
8:00 PM 75 °F 51 °F 33% 29.81 in 37 mi North 4.5 mph - -   Scattered Clouds
8:20 PM 73.4 °F 53.6 °F 50% 29.86 in - North 6.9 mph - N/A   Clear
8:50 PM 71.6 °F 55.4 °F 57% 29.86 in - NNE 10.4 mph - N/A   Clear
9:00 PM 71 °F 54 °F 45% 29.82 in 37 mi North 8.9 mph - -   Clear
9:20 PM 69.8 °F 57.2 °F 64% 29.86 in - North 6.9 mph - N/A   Clear
9:50 PM 68.0 °F 57.2 °F 68% 29.89 in - NNE 5.8 mph - N/A   Clear
10:00 PM 69 °F 56 °F 55% 29.84 in 25 mi North 4.5 mph - -   Scattered Clouds
10:20 PM 68.0 °F 57.2 °F 68% 29.89 in - North 5.8 mph - N/A   Clear
10:50 PM 68.0 °F 57.2 °F 68% 29.89 in - North 4.6 mph - N/A   Clear
11:20 PM 66.2 °F 57.2 °F 73% 29.86 in - North 5.8 mph - N/A   Clear
11:50 PM 66.2 °F 57.2 °F 73% 29.86 in - North 3.5 mph - N/A   Clear